Flag for Pakistan Weather past 2 weeks in Peshawar, Pakistan

Now
79 °F

Passing clouds.


Feels Like: 82 °F
Forecast: 77 / 98 °F
Wind: 5 mph from Northeast

Location: Peshawar Airport

Current Time: Aug 4, 2015 at 3:05:54 AM

Latest Report: Aug 4, 2015 at 1:00 AM


Visibility: 2 mi

Pressure: 29.65 "Hg

Humidity: 79%

Dew point: 72 °F

Location of PeshawarLocation

Historic Weather in Peshawar — Graph

°F

Peshawar temperature yesterday

Maximum temperature yesterday: 90 °F (at 5:00 PM)
Minimum temperature yesterday: 77 °F (at 6:00 AM)
Average temperature yesterday: 82 °F

Past Weeks' High & Low Weather Summary

 TemperatureHumidityPressure
High100 °F (Jul 20, 3:00 PM)100% (Jul 25, 3:00 PM)29.77 "Hg (Jul 25, 3:00 PM)
Low37 °F (Jul 25, 3:00 PM)39% (Jul 29, 4:00 PM)29.53 "Hg (Jul 20, 1:00 AM)
Average84 °F69%29.62 "Hg
* Reported Jul 20 1:00 AM — Aug 4 1:00 AM, Peshawar, Weather by CustomWeather, © 2015

Note: Actual official high and low records may vary slightly from our data, if they occured in-between our weather recording intervals... More about our weather records

Advertising

Peshawar weather history for previous 24 hours

 ConditionsComfort  
Time TempWeatherWind HumidityBarometerVisibility
1:00 AM
Tue, Aug 4
79 °FPassing clouds.5 mph79%29.65 "Hg2 mi
12:00 AM81 °FPassing clouds.No wind74%29.68 "Hg2 mi
11:00 PM
Mon, Aug 3
81 °FPassing clouds.7 mph74%29.68 "Hg2 mi
10:00 PM82 °FPassing clouds.No wind74%29.65 "Hg2 mi
9:00 PM82 °FPassing clouds.7 mph74%29.65 "Hg2 mi
8:00 PM84 °FPassing clouds.7 mph74%29.62 "Hg2 mi
7:00 PM86 °FScattered clouds.7 mph70%29.62 "Hg2 mi
6:00 PM88 °FBroken clouds.7 mph70%29.62 "Hg2 mi
5:00 PM90 °FBroken clouds.9 mph75%29.62 "Hg2 mi
4:00 PM86 °FBroken clouds.9 mph79%29.62 "Hg2 mi
3:00 PM86 °FBroken clouds.9 mph79%29.65 "Hg2 mi
2:00 PM84 °FFog.9 mph84%29.68 "Hg1 mi
1:00 PM82 °FFog.7 mph74%29.68 "Hg1 mi
12:00 PM81 °FRain. Broken clouds.5 mph79%29.71 "Hg1 mi
10:00 AM79 °FRain. Broken clouds.7 mph84%29.74 "Hg1 mi
9:00 AM79 °FRain. Broken clouds.7 mph79%29.71 "Hg1 mi
8:00 AM77 °FRain. Broken clouds.7 mph89%29.71 "Hg1 mi
7:00 AM77 °FThunderstorms. Cloudy.No wind83%29.71 "HgN/A
6:00 AM77 °FThunderstorms. Cloudy.No wind89%29.68 "HgN/A
5:00 AM79 °FThunderstorms. Overcast.2 mph84%29.68 "HgN/A
3:00 AM79 °FFog.No wind84%29.68 "Hg2 mi
Weather by CustomWeather, © 2015

See weather overviewHow to use our weather pages